Location: Newark
(42.7133°N, 87.7910°W)
Time: 01:48:29
(UTC+00:00)

Vanguard 1 - Pass Details

Date: 23 September 2019
Orbit: 653 x 3830 km, 34.3° (Epoch: 14 October)

Event Time Altitude Azimuth Distance (km) Brightness Sun altitude
Rises 14:59:44 0° 279° (W) 6,706 13.9 33.6°
Reaches altitude 10° 15:08:59 10° 253° (WSW) 4,760 13.4 34.9°
Maximum altitude 15:12:26 11° 237° (WSW) 4,243 13.3 35.4°
Drops below altitude 10° 15:15:28 10° 220° (SW) 4,003 13.3 35.8°
Sets 15:21:11 0° 188° (S) 4,284 13.8 36.6°
